Weather Roundup
Issued by NWS

Home | Current Version | Previous Version | Graphics & Text | Print | Product List | Glossary Off
Versions: 1 2 3 4 5 6 7 8 9 10 11 12 13 14 15 16 17 18 19 20 21 22 23 24 25 26 27 28 29 30 31 32 33 34 35 36 37 38 39 40 41 42 43 44 45 46 47 48 49 50

000
NZUS93 KARX 280110
HRRWXR

CURRENT HOURLY OBSERVATIONS ACROSS
MUCH OF THE UPPER MISSISSIPPI VALLEY
NATIONAL WEATHER SERVICE LA CROSSE WI
700 PM CST THU NOV 27 2014


...SOUTHEAST MINNESOTA...


CITY           SKY/WX    TMP DP  RH WIND       PRES   REMARKS
ROCHESTER      MOCLDY     2  -4  76 S5        30.34F WCI  -8
ROCHESTER/MAYO FAIR       5  -4  67 SE3       30.35F
WINONA         MOCLDY    10   1  67 CALM      30.42F
AUSTIN         MOCLDY     1  -4  78 CALM      30.34F
ALBERT LEA     FAIR       3  -2  78 SE6       30.34F WCI  -8
DODGE CENTER   MOCLDY     1  -2  85 SW3       30.33S
PRESTON        PTCLDY     2  -4  75 CALM      30.34F
OWATONNA       PTCLDY     3  -4  72 SE7       30.33F WCI  -9
FARIBAULT      MOCLDY     1  -4  78 SE3       30.35F
$$

...ELSEWHERE IN MINNESOTA...


CITY           SKY/WX    TMP DP  RH WIND       PRES   REMARKS
MINNEAPOLIS    MOCLDY     6  -4  63 S5        30.37F WCI  -3
INTNL FALLS    PTCLDY    -4  -9  79 E5        30.25F WCI -15
DULUTH         MOCLDY     1  -7  68 CALM      30.27F
RED WING       PTCLDY     7  -2  66 CALM      30.39S
REDWOOD FALLS  CLOUDY     3  -4  72 SE14      30.30F WCI -15
MANKATO        MOCLDY     0  -8  71 S8        30.33F WCI -15
WORTHINGTON    CLOUDY     7   0  72 SE10      30.23F WCI  -8
FAIRMONT       CLOUDY     0  -4  85 SE10      30.30F WCI -17
$$

...SOUTHWEST WISCONSIN...


CITY           SKY/WX    TMP DP  RH WIND       PRES   REMARKS
LA CROSSE      PTCLDY     9   0  67 NE3       30.40F
PRAIRIE DU CHI PTCLDY    10   1  69 CALM      30.42S
BOSCOBEL       CLEAR      6   0  76 CALM      30.41F
LONE ROCK      FAIR       7  -1  70 CALM      30.41S
PLATTEVILLE    PTCLDY    11  -1  58 CALM      30.38F
FORT MC COY    PTCLDY     0  -2  90 CALM      30.40F
CAMP DOUGLAS   PTCLDY     1  -1  91 CALM      30.39R
VIROQUA        FAIR       6  -2  68 CALM      30.34F
WIS DELLS      PTCLDY     3   0  87 CALM      30.39R
$$

...ELSEWHERE IN WISCONSIN...


CITY           SKY/WX    TMP DP  RH WIND       PRES   REMARKS
MILWAUKEE      FAIR      17   7  64 NW5       30.39F WCI  10
MADISON        PTCLDY     6   3  87 CALM      30.39S
GREEN BAY      CLEAR      7   2  80 W6        30.38S WCI  -3
EAU CLAIRE     PTCLDY     2  -3  80 CALM      30.37F
BLACK RVR FLS  FAIR      -3  -7  84 CALM      30.39F
MEDFORD        PTCLDY     1  -4  80 CALM      30.30F
WAUSAU         CLEAR      5  -1  76 NW6       30.32F WCI  -6
WIS RAPIDS     PTCLDY     2  -2  83 CALM      30.38S
MARSHFIELD     PTCLDY     1  -5  75 NW6       30.34S WCI -10
RICE LAKE      PTCLDY     3  -3  75 CALM      30.36F
$$

...NORTHEAST IOWA...


CITY           SKY/WX    TMP DP  RH WIND       PRES   REMARKS
DECORAH        MOCLDY     5  -2  72 CALM      30.37S
MASON CITY     PTCLDY     4  -1  80 S7        30.37S WCI  -8
CHARLES CITY   CLOUDY     5  -2  72 CALM      30.38F
OELWEIN        CLOUDY     7   0  72 W5        30.40S WCI  -2
$$

...ELSEWHERE IN IOWA...


CITY           SKY/WX    TMP DP  RH WIND       PRES   REMARKS
DES MOINES     CLOUDY    13   2  61 SE7       30.38F WCI   3
IOWA CITY      PTCLDY     7   2  80 W5        30.45F WCI  -2
FORT DODGE     CLOUDY     7   0  72 SE5       30.35S WCI  -2
$$

...NORTHERN ILLINOIS...


CITY           SKY/WX    TMP DP  RH WIND       PRES   REMARKS
CHICAGO-OHARE  MOCLDY    19  10  68 NW7       30.39S WCI  10
CHICAGO-MIDWAY MOCLDY    23  11  60 N10       30.40S WCI  12
MOLINE         PTCLDY    12   4  70 SW5       30.44F WCI   4
ROCKFORD       CLEAR     14   5  67 NW7       30.42F WCI   4
PEORIA         PTCLDY    15   7  70 W6        30.46F WCI   6
$$

NOTE: "FAIR" INDICATES FEW OR NO CLOUDS BELOW 12,000 FEET WITH NO
SIGNIFICANT WEATHER AND/OR OBSTRUCTIONS TO VISIBILITY. WIND
SPEEDS ARE IN MILES-PER-HOUR.



USA.gov is the U.S. government's official web portal to all federal, state and local government web resources and services.